Regional Weather Roundup
Issued by NWS

Home | Current Version | Previous Version | Graphics & Text | Print | Product List | Glossary On
Versions: 1 2 3 4 5 6 7 8 9 10 11 12 13 14 15 16 17 18 19 20 21 22 23 24 25 26 27 28 29 30 31 32 33 34 35 36 37 38 39 40 41 42 43 44 45 46 47 48 49 50
000
ASUS43 KMPX 012201
RWRMN
WEATHER ROUNDUP FOR MINNESOTA
NATIONAL WEATHER SERVICE TWIN CITIES/CHANHASSEN MN
500 PM CDT WED APR 01 2015


NOTE: "FAIR" INDICATES FEW OR NO CLOUDS BELOW 12,000 FEET WITH NO
SIGNIFICANT WEATHER AND/OR OBSTRUCTIONS TO VISIBILITY. N/A MEANS
CURRENT SKY AND/OR WEATHER CONDITIONS ARE NOT AVAILABLE.

MNZ060>063-068>070-012300-
   Twin Cities Metro

CITY           SKY/WX    TMP DP  RH WIND       PRES   REMARKS
TWIN CITIES    PTSUNNY   83  35  18 S22G38    29.49S
ST PAUL        MOSUNNY   81  35  19 S29G40    29.49F
CRYSTAL        PTSUNNY   82  35  18 S26G46    29.46S
LAKEVILLE      MOSUNNY   79  39  24 S30G40    29.49F
EDEN PRAIRIE   PTSUNNY   82  37  20 S25G40    29.46F
SOUTH ST PAUL  MOSUNNY   81  35  18 S32G39    29.50F
LAKE ELMO        N/A     79  41  25 S30       29.52F
$$
MNZ001>005-007-008-013>017-022>024-027-028-012300-
   Northwest Minnesota

CITY           SKY/WX    TMP DP  RH WIND       PRES   REMARKS
BEMIDJI        CLOUDY    68  41  37 SW14G21   29.36S
HALLOCK        PTSUNNY   59  41  51 W14G24    29.38R
ROSEAU         PTSUNNY   68  45  42 SW13      29.32S
THIEF RVR FALL CLOUDY    63  39  42 W22       29.37R
CROOKSTON      PTSUNNY   64  39  39 NW28G38   29.40R
FOSSTON        CLOUDY    72  37  28 W20G26    29.36R
DETROIT LAKES  CLOUDY    68  36  30 W17       29.42R
MOORHEAD       MOSUNNY   66  34  30 NW22G35   29.44R
PARK RAPIDS    CLOUDY    70  37  29 SW24      29.39S
MAHNOMEN       FAIR      70  36  29 W24G31    29.37R
$$
MNZ006-009>011-018-025>026-012300-
   North Central Minnesota

CITY           SKY/WX    TMP DP  RH WIND       PRES   REMARKS
BAUDETTE       MOSUNNY   62  39  42 S10       29.34F
FLAG ISLAND    PTSUNNY   43  34  70 SE7       29.33F
INTL FALLS     CLOUDY    65  36  34 S6        29.38R
WASKISH        PTSUNNY   66  41  39 S5        29.35F
BIG FORK       CLOUDY    66  37  34 S14G23    29.38F
LONGVILLE      CLOUDY    68  37  32 SW6       29.38F
GRAND RAPIDS   CLOUDY    63  37  39 SE7       29.41F
ORR            CLOUDY    59  30  33 SE14G22   29.39F
COOK           CLOUDY    57  36  44 SE12      29.44F
WALKER         FAIR      67  40  37 SW18G26   29.37F
$$
MNZ012-019>021-037-012300-
   Northeast Minnesota

CITY           SKY/WX    TMP DP  RH WIND       PRES   REMARKS
DULUTH         CLOUDY    41  31  67 SE18      29.50F
ELY            CLOUDY    48  30  49 SE12      29.49F
EVELETH        CLOUDY    54  34  47 SE7       29.47F
DULUTH HARBOR  CLOUDY    36  34  93 NE15      29.55F
TWO HARBORS    CLOUDY    46  36  66 NE9       29.52F
SILVER BAY     CLOUDY    39  32  75 NE9       29.54F
GRAND MARAIS     N/A     38  31  76 E14G22    29.60F
G MARAIS ARPRT CLOUDY    39  27  60 NE8       29.59F
$$
MNZ029>031-032-039>041-046>048-054>057-064-012300-
   West Central Minnesota

CITY           SKY/WX    TMP DP  RH WIND       PRES   REMARKS
FERGUS FALLS   CLOUDY    68  34  28 W21G28    29.46R
WHEATON        CLOUDY    64  39  39 W21G26    29.49R
MORRIS         CLOUDY    66  37  34 W17       29.46R
ALEXANDRIA     CLOUDY    68  40  35 W20       29.46R
ELBOW LAKE     FAIR      65  39  38 W20       29.46R
WADENA         CLOUDY    66  43  42 SW18G31   29.42R
GLENWOOD       CLOUDY    70  46  43 W13       29.46F
APPLETON       CLOUDY    70  34  26 NW17      29.47R
BENSON         CLOUDY    72  39  30 NW18G24   29.46R
ORTONVILLE     CLOUDY    64  36  34 W13G18    29.47R
MADISON        CLOUDY    70  30  23 W24       29.48R
WILLMAR          N/A     75  43  31 W16       29.45F
$$
MNZ033>034-036-042>043-049>051-058-059-012300-
   Central Minnesota

CITY           SKY/WX    TMP DP  RH WIND       PRES   REMARKS
ST CLOUD       CLOUDY    73  47  39 S9        29.43F
SAUK CENTRE    FAIR      71  46  41 SW13      29.45S
PAYNESVILLE    CLOUDY    70  45  40 SW9       29.44F
AITKIN         CLOUDY    73  37  27 S13       29.40R
PINE RIVER     CLOUDY    70  46  43 SW9G22    29.43F
BRAINERD       CLOUDY    71  42  35 SW22      29.43S
STAPLES        CLOUDY    70  43  37 SW15G23   29.42R
LONG PRAIRIE   FAIR      68  45  42 S12       29.45S
LITTLE FALLS   CLOUDY    73  41  31 SW13G18   29.44R
LITCHFIELD     CLOUDY    81  43  26 SW6       29.43F
BUFFALO        CLOUDY    79  41  25 S18G32    29.47S
MAPLE LAKE     CLOUDY    80  46  29 S12G29    29.45F THUNDER
$$
MNZ037-044-045-052-053-012300-
   East Central Minnesota

CITY           SKY/WX    TMP DP  RH WIND       PRES   REMARKS
PRINCETON      TSTM      61  54  77 N6        29.46F
MORA           PTSUNNY   73  41  31 S23G33    29.46F
CAMBRIDGE      CLOUDY    79  52  38 S10       29.44F THUNDER
RUSH CITY      CLOUDY    62  45  53 CALM      29.49F
MOOSE LAKE     CLOUDY    72  41  33 S13G21    29.44F
HINCKLEY       FAIR      68  43  40 S15       29.47F
CLOQUET        CLOUDY    45  34  65 E9G16     29.49F
MCGREGOR       CLOUDY    68  41  37 S14       29.43F
$$
MNZ071>073-080-081-089-090-097-098-012300-
   Southwest Minnesota

CITY           SKY/WX    TMP DP  RH WIND       PRES   REMARKS
MONTEVIDEO     CLOUDY    77  43  29 NW16G22   29.46R
GRANITE FALLS  CLOUDY    79  44  28 SW28G39   29.46R
CANBY          CLOUDY    73  32  22 W23       29.49R
MARSHALL       CLOUDY    81  43  26 W35       29.46R
REDWOOD FALLS  PTSUNNY   81  43  26 SW25G41   29.44S
OLIVIA         CLOUDY    77  46  33 SW22G29   29.44R
PIPESTONE      CLOUDY    75  30  19 NW15G28   29.51R
WINDOM         PTSUNNY   81  37  21 S28G38    29.49F
WORTHINGTON    PTSUNNY   81  45  28 S28G39    29.51F
JACKSON        PTSUNNY   81  34  18 S26G35    29.53F
TRACY          PTSUNNY   82  44  26 SW26G39   29.47S
SLAYTON        CLOUDY    80  33  17 SW25G38   29.49S
$$
MNZ065>067-074>077-082>085-091>093-012300-
   South Central Minnesota

CITY           SKY/WX    TMP DP  RH WIND       PRES   REMARKS
MANKATO        MOSUNNY   82  39  21 SW32G44   29.50F
NEW ULM        PTSUNNY   82  37  20 S24G38    29.45F
FAIRMONT       PTSUNNY   81  39  22 S31G37    29.53F
GLENCOE        PTSUNNY   81  47  30 S23G33    29.45S
FARIBAULT      MOSUNNY   79  36  21 S21G33    29.55F
OWATONNA       MOSUNNY   79  34  19 S29G38    29.56F
ALBERT LEA     PTSUNNY   81  34  18 S18G31    29.57F
$$
MNZ078>079-086>088-094>096-012300-
   Southeast Minnesota

CITY           SKY/WX    TMP DP  RH WIND       PRES   REMARKS
ROCHESTER      PTSUNNY   74  40  29 S21G36    29.62R
RED WING       SUNNY     81  34  18 SW18G26   29.55F
STANTON        SUNNY     79  38  23 S16G31    29.53F
DODGE CENTER   MOSUNNY   75  41  29 S22G28    29.60F
WINONA         MOSUNNY   79  32  18 S17G32    29.62F
AUSTIN         PTSUNNY   77  37  24 S25G36    29.60F
PRESTON        MOSUNNY   74  34  22 S22G33    29.63F
$$
ABBREVIATIONS USED IN REMARKS
   TC - TEMPERATURES IN CELSIUS
  WCI - WIND CHILL INDEX
   HX - HEAT INDEX
  VSB - VISIBILITY
$$


USA.gov is the U.S. government's official web portal to all federal, state and local government web resources and services.